Temperature
8 8 8 8 8 8 8 8 8 8 8 8 8 8 8 8 8 8 8 8 8 8 8 8 8 8 8 8 9 9 9 9 9 8 8 8 8 7 7 7 7 7 7
7 7 7 7 7 7 7 7 7 7 7 7 7 7 7 7 7 7 7 7 7 7 7 7 7 7 7 8 8 8 8 8 8 8 8 8 7 7 7 7 7 7 7
7 7 7 7 7 6 6 6 6 6 6 6 6 6 6 6 6 6 6 6 6 6 6 6 6 7 7 7 7 7 8 8 8 8 8 7 7 7 7 7 7 7 7
6 6 6 6 6 6 6 6 6 6 6 6 6 6 6 6 6 6 6 6 6 6 6 6 6 6 6 6 7 7 7 7 7 7 7 7 7 7 7 7 7 7 7
6 6 6 6 5 5 5 5 5 5 5 5 5 5 5 5 6 6 6 6 6 6 6 6 6 6 6 6 6 6 7 7 7 7 7 7 6 6 6 6 7 7 7
6 6 5 5 5 5 5 5 5 5 5 5 5 5 5 5 5 6 6 5 6 5 6 6 6 6 6 6 6 6 6 6 6 6 6 6 6 6 6 6 6 6 6
5 5 5 5 5 5 5 5 5 5 5 5 5 5 5 5 5 5 5 5 5 5 6 6 6 5 5 5 6 6 6 6 6 6 6 6 6 6 6 6 6 6 6
5 5 5 5 5 5 5 5 5 5 5 5 5 5 5 5 5 5 5 5 5 5 5 5 5 6 5 6 6 6 6 6 6 6 6 6 6 6 6 6 6 6 7
6 5 5 5 5 5 5 5 5 5 5 5 5 5 5 5 5 5 5 5 5 5 5 5 5 6 6 6 6 5 6 6 6 6 6 6 6 6 6 6 6 6 6
6 5 5 5 5 5 5 5 5 5 5 5 5 5 5 5 5 5 6 6 6 6 6 6 5 6 5 6 6 6 6 6 6 6 6 6 6 6 6 6 6 6 6
6 6 5 5 5 5 5 5 5 5 5 5 5 5 5 5 5 5 6 6 6 5 5 5 5 5 5 5 6 6 6 6 6 6 6 7 7 7 6 6 6 6 6
6 6 6 5 5 5 5 5 5 5 5 5 5 5 5 5 5 5 5 5 5 5 5 5 5 5 5 6 6 6 6 6 6 6 6 6 7 7 7 7 7 7 7
6 6 6 6 6 6 6 6 6 6 6 6 6 5 5 5 5 5 5 5 5 5 5 5 5 5 5 6 6 6 6 6 6 6 6 6 7 7 7 7 7 7 7
6 6 6 6 6 6 6 6 6 6 6 6 6 6 5 5 5 5 5 5 5 5 5 5 5 6 6 6 6 6 6 6 6 6 6 6 7 7 7 7 7 7 7
6 6 6 6 6 6 6 6 6 6 6 6 5 5 5 5 5 5 5 5 5 5 5 5 6 6 6 6 6 6 6 6 6 6 6 6 7 7 7 7 7 7 7
6 6 6 6 6 6 6 6 6 6 6 6 5 5 5 5 5 5 5 5 5 5 5 6 6 6 6 6 6 6 6 6 6 6 6 6 7 7 7 7 7 7 7
6 7 7 7 7 7 6 6 6 6 6 5 5 5 5 5 5 5 5 5 6 6 6 6 6 6 6 6 6 6 6 6 6 6 6 6 6 7 7 7 7 7 7
7 7 7 7 7 7 7 7 6 6 6 6 6 6 5 5 5 5 5 6 6 6 6 6 6 6 6 6 6 6 6 6 6 6 6 6 6 6 7 7 7 7 7
7 7 7 7 7 7 7 7 7 7 7 6 6 6 6 6 6 6 6 6 6 6 6 6 6 6 6 6 6 6 6 6 6 6 6 6 6 6 7 7 7 7 7
7 7 7 7 8 8 8 8 8 7 7 7 7 6 6 6 6 6 6 6 6 6 6 6 6 6 6 6 6 6 6 6 6 6 6 6 6 6 7 7 7 7 7
8 8 8 8 8 8 8 8 8 8 8 7 7 7 7 7 7 6 6 6 6 6 6 6 6 6 6 6 6 5 5 5 5 5 5 6 6 6 6 7 7 7 7
8 9 9 9 9 8 8 8 8 8 8 8 8 7 7 7 7 7 7 6 6 6 6 5 5 5 5 5 5 5 5 5 5 5 5 5 5 6 6 7 7 7 7
9 9 9 9 9 9 9 9 9 9 8 8 8 8 7 7 7 7 7 6 6 6 5 5 5 5 5 5 5 5 5 5 5 5 5 5 5 6 6 6 7 7 7
9 10 10 10 9 9 9 9 9 9 9 8 8 8 8 7 7 7 7 6 6 6 5 5 5 5 5 4 4 4 5 5 5 5 5 5 5 5 6 6 7 7 7
10 10 10 10 10 10 10 9 9 9 9 9 9 8 8 8 8 7 7 7 6 6 6 5 5 5 5 4 4 4 5 5 5 5 5 5 5 5 6 6 6 7 7
10 10 11 11 10 10 10 10 10 9 9 9 9 9 8 8 8 8 7 7 7 6 6 6 5 5 5 5 5 5 5 5 5 5 5 5 5 5 5 6 6 7 7
Wind_Speed
9 9 10 9 9 9 8 8 8 7 7 7 7 7 8 8 7 7 7 7 8 7 7 7 7 7 5 5 4 4 5 3 3 3 3 3 2 1 1 3 4 6 9
9 10 10 9 9 9 8 8 8 8 7 7 7 8 8 8 7 7 7 7 7 7 7 7 8 7 7 6 5 5 3 3 3 3 2 2 2 1 1 3 3 2 6
9 10 10 9 9 9 8 7 7 7 7 7 7 7 7 7 7 7 7 7 7 7 7 7 7 7 7 6 6 5 4 4 2 2 2 2 1 0 1 2 2 1 2
9 10 10 9 8 8 7 7 7 7 7 7 7 7 7 7 8 7 6 6 6 6 7 8 8 8 7 7 6 7 5 4 2 2 2 2 2 2 2 2 1 1 1
9 9 9 8 7 7 7 7 7 6 7 6 6 7 7 7 8 7 4 6 5 6 6 6 6 6 7 6 6 6 6 5 4 3 3 3 3 3 2 2 2 2 2
8 8 8 7 7 6 6 6 6 6 5 6 6 7 8 8 10 12 8 4 4 4 4 4 4 4 4 4 4 4 5 5 5 4 3 4 4 3 3 3 3 2 2
7 7 6 6 6 5 6 5 5 4 4 5 6 7 8 8 11 12 12 4 4 4 4 3 4 6 6 4 2 1 1 1 1 2 4 4 3 4 4 4 4 3 3
6 6 6 5 6 6 5 5 4 4 4 5 6 6 7 7 10 11 12 3 2 3 4 5 6 6 7 7 5 3 1 1 1 2 2 3 3 3 4 4 5 4 3
6 6 6 5 6 5 5 4 4 4 4 4 5 6 6 6 8 10 10 3 2 4 6 6 6 6 8 10 6 5 5 4 2 2 4 5 7 8 6 3 5 4 3
6 6 5 4 4 5 4 4 3 3 3 4 6 5 6 5 6 10 11 4 3 4 5 6 9 7 7 9 6 6 6 6 7 5 5 7 9 9 8 5 3 4 3
5 5 5 4 4 5 4 3 2 3 4 4 5 5 5 5 5 8 10 6 6 4 3 4 4 5 6 7 5 3 3 5 7 6 4 2 2 2 3 5 4 1 2
5 5 5 3 3 5 3 3 2 2 3 4 4 5 4 4 4 5 6 6 6 5 4 4 3 3 5 7 6 6 9 8 5 3 2 2 2 1 1 2 2 4 5
4 5 4 4 4 3 2 2 2 1 2 3 3 4 4 4 3 2 4 5 6 4 3 4 3 4 6 6 6 8 8 4 3 3 3 2 2 2 2 2 2 4 6
5 4 3 4 4 3 2 3 4 5 4 4 4 4 4 5 4 3 2 2 2 3 3 3 5 6 6 6 5 4 2 1 2 3 3 3 3 3 2 1 2 2 2
4 3 3 4 4 4 6 6 7 6 6 5 5 5 5 5 4 5 5 5 6 6 6 4 3 3 2 1 1 1 1 2 3 3 3 3 3 3 3 2 2 3 2
3 3 3 3 4 4 5 6 9 7 7 9 8 6 5 5 2 4 6 7 8 9 5 3 3 3 3 2 3 2 2 3 3 4 4 3 3 3 3 3 2 2 3
2 2 1 2 3 3 4 4 4 3 3 3 3 3 3 1 2 4 7 10 12 8 4 3 1 2 3 3 3 3 3 2 2 3 3 3 3 3 3 3 3 3 4
3 3 1 1 1 2 3 4 4 5 4 4 4 5 4 4 5 6 7 7 6 4 2 1 2 3 3 3 3 3 4 3 3 4 4 4 4 4 4 4 3 3 4
1 2 1 1 1 2 2 2 3 3 3 4 5 5 7 7 8 9 7 5 4 2 2 2 2 3 3 3 2 2 3 3 3 3 3 3 4 4 4 4 4 5 4
2 1 2 2 2 2 2 1 2 2 2 3 3 4 4 5 5 5 4 3 2 2 3 3 2 2 2 2 3 2 3 3 4 3 4 4 4 4 5 5 4 4 4
3 3 5 4 2 1 1 1 1 1 1 2 3 4 1 3 2 2 2 1 1 2 3 3 3 2 2 2 3 5 5 4 4 5 5 5 5 5 5 4 4 4 4
3 3 3 2 1 2 1 1 1 1 1 2 4 5 4 4 2 0 1 1 1 1 2 2 4 4 4 4 4 4 4 5 6 6 6 7 7 6 6 5 5 5 4
4 3 2 2 2 3 3 2 1 1 1 1 1 3 4 1 0 1 1 1 1 1 2 1 2 3 6 7 6 6 5 6 5 6 7 7 7 7 7 6 7 6 5
4 3 3 3 3 3 2 2 2 1 1 1 1 1 2 2 1 1 0 1 1 1 1 2 2 3 3 4 5 7 8 7 7 8 9 7 8 8 7 6 6 7 5
5 4 3 3 3 2 1 1 1 1 1 1 1 1 1 1 2 2 2 2 1 1 1 1 1 2 3 4 6 6 5 6 7 8 8 9 8 9 8 8 7 6 5
4 4 3 2 2 1 1 1 1 1 1 1 1 1 1 1 1 1 1 2 1 2 2 2 2 1 1 4 5 4 3 5 7 9 9 8 8 8 8 7 8 7 6
Wind_Direction
66 65 64 65 66 70 71 72 71 68 66 66 65 66 64 61 61 67 69 66 67 62 57 55 48 37 29 29 33 35 36 52 88 90 103 127 142 166 176 276 257 190 178
76 75 71 68 67 68 69 69 71 69 66 67 64 67 68 65 60 64 70 67 67 65 59 53 46 45 35 28 27 38 40 55 85 94 108 129 160 177 225 266 271 154 179
79 80 74 69 66 66 66 67 68 71 71 67 65 67 67 65 63 62 65 69 68 65 61 59 51 43 36 26 26 24 27 46 63 105 126 123 129 111 303 303 329 358 252
81 80 75 71 70 68 66 66 63 60 64 66 67 67 64 61 54 51 61 66 68 66 61 58 52 45 32 11 34 26 27 21 29 69 98 94 77 34 27 329 344 343 323
82 82 79 76 72 70 67 64 61 59 63 63 65 66 61 57 44 35 50 78 74 73 75 77 73 70 56 36 41 27 23 18 23 33 59 60 46 34 18 333 6 340 335
85 84 84 84 77 74 76 73 67 65 63 64 67 68 63 55 36 31 30 49 67 71 82 97 111 97 85 70 55 41 32 32 26 19 35 39 31 24 5 344 354 349 328
95 94 93 93 87 81 82 79 75 77 78 78 81 82 77 52 33 25 15 9 56 53 49 48 66 67 40 25 9 273 246 237 255 22 21 14 16 18 359 339 337 320 293
108 102 95 88 83 82 85 80 75 72 74 77 81 84 81 54 31 19 358 349 77 73 58 55 66 56 32 10 351 6 26 144 227 210 13 350 10 360 340 315 306 310 301
110 103 97 88 85 86 84 79 82 85 82 83 84 85 86 62 29 16 360 327 100 88 74 54 61 68 35 13 2 8 19 13 352 251 259 273 280 282 288 317 326 340 343
105 102 100 99 96 94 88 84 87 93 91 89 89 89 89 77 37 22 5 2 53 82 97 89 67 54 32 20 7 8 14 358 343 323 283 267 260 261 249 232 286 327 341
107 106 103 97 97 97 88 88 95 93 90 92 100 98 91 86 64 34 25 19 12 34 82 85 72 39 20 5 348 348 347 317 305 299 289 272 257 249 224 219 230 270 320
110 108 104 98 89 93 92 91 96 98 107 108 109 110 106 96 65 47 30 26 8 19 41 60 70 3 342 329 324 324 324 316 294 316 357 12 354 333 290 273 252 260 254
104 100 102 100 91 100 106 104 111 115 101 113 127 127 124 117 92 34 2 6 12 19 19 360 322 294 307 298 280 297 314 319 343 359 357 349 329 298 291 290 279 269 271
112 107 108 111 107 90 67 65 57 43 44 54 68 86 96 85 59 25 359 10 356 9 349 306 278 274 280 295 299 280 270 332 344 322 328 328 321 322 326 327 328 318 308
120 120 112 102 98 87 72 52 64 60 56 43 38 52 69 74 43 16 10 14 4 6 337 308 283 274 254 257 316 330 340 15 358 341 338 334 339 340 334 330 328 327 329
137 137 133 130 127 123 115 95 62 80 83 73 61 61 74 86 87 10 0 349 340 342 339 316 324 345 359 7 0 358 21 37 3 334 330 337 339 332 330 328 335 339 327
124 118 104 111 126 134 135 136 134 110 82 76 72 67 80 112 343 331 333 330 314 313 302 294 347 13 10 6 2 4 12 12 335 318 326 345 344 336 335 329 340 343 332
135 122 138 122 124 142 146 151 155 161 166 172 198 221 229 248 278 294 312 320 298 269 262 318 22 22 23 13 8 4 352 350 354 348 347 350 344 335 331 330 332 336 326
134 119 127 140 177 157 161 165 165 165 163 160 161 188 226 242 263 272 285 280 299 341 6 20 30 26 18 0 349 344 328 325 341 333 331 335 332 329 329 326 325 327 315
123 79 279 245 205 174 169 148 137 143 152 156 161 165 183 207 227 229 225 258 305 360 11 6 17 22 358 329 331 339 346 349 353 349 350 348 339 330 327 326 322 320 317
171 175 213 242 221 131 93 91 108 134 152 154 128 118 179 252 229 193 186 194 10 17 23 352 328 342 15 1 9 8 5 359 5 5 358 347 334 325 318 316 317 320 324
207 198 198 193 138 107 117 181 170 161 155 148 146 160 203 256 286 81 97 89 63 44 55 13 342 8 31 16 16 3 5 13 14 10 356 339 329 324 324 325 325 326 325
219 207 189 161 129 143 214 219 172 188 162 125 148 157 172 213 8 62 66 82 84 61 49 38 345 23 35 22 20 31 29 26 8 353 340 329 326 324 321 322 324 326 335
238 218 197 173 180 190 197 183 194 223 198 168 169 158 156 158 136 99 72 69 70 74 59 40 24 41 43 21 37 61 52 32 4 344 338 323 316 312 315 318 320 324 330
243 230 214 193 187 184 185 213 220 219 209 177 194 224 211 180 175 181 168 157 184 184 161 125 59 24 37 49 65 74 51 23 6 347 327 311 308 309 311 314 316 316 322
234 236 237 206 169 159 209 239 231 239 239 224 208 215 245 230 197 182 169 167 204 167 160 176 177 162 111 93 95 86 40 7 350 341 325 301 297 301 313 315 318 320 328
Height
1515 1515 1515 1515 1516 1516 1516 1517 1518 1519 1519 1521 1521 1521 1522 1523 1524 1524 1526 1527 1528 1529 1530 1531 1532 1533 1534 1534 1535 1536 1537 1538 1540 1542 1543 1544 1544 1545 1545 1544 1544 1544 1544
1517 1517 1517 1517 1517 1518 1518 1519 1520 1521 1521 1522 1523 1523 1524 1525 1526 1527 1528 1529 1530 1531 1531 1532 1533 1534 1534 1535 1535 1536 1537 1538 1539 1541 1542 1543 1544 1544 1544 1544 1544 1544 1543
1520 1520 1520 1520 1520 1520 1521 1522 1522 1523 1523 1524 1525 1526 1527 1528 1529 1530 1531 1531 1532 1533 1533 1534 1535 1535 1535 1536 1536 1536 1537 1538 1540 1541 1542 1543 1544 1544 1544 1544 1544 1543 1543
1522 1522 1522 1523 1523 1524 1524 1525 1525 1525 1526 1527 1527 1528 1530 1531 1532 1532 1533 1534 1534 1535 1535 1536 1536 1536 1537 1537 1537 1537 1537 1539 1540 1541 1542 1543 1543 1543 1543 1543 1543 1542 1542
1525 1525 1526 1526 1527 1527 1527 1528 1528 1528 1529 1530 1531 1531 1532 1533 1534 1535 1536 1536 1537 1537 1538 1538 1538 1539 1539 1539 1538 1538 1539 1539 1540 1541 1542 1542 1542 1542 1542 1542 1542 1541 1541
1528 1529 1529 1530 1530 1530 1531 1531 1531 1531 1532 1533 1533 1534 1534 1535 1537 1537 1538 1538 1539 1540 1540 1540 1540 1541 1541 1541 1540 1540 1541 1541 1541 1541 1542 1542 1542 1542 1542 1541 1541 1540 1540
1532 1532 1533 1533 1533 1534 1534 1534 1535 1535 1535 1536 1536 1536 1537 1538 1539 1539 1540 1541 1541 1542 1542 1542 1543 1543 1542 1542 1542 1542 1542 1542 1543 1542 1542 1542 1542 1542 1541 1541 1540 1540 1539
1535 1536 1536 1536 1537 1537 1537 1537 1538 1538 1538 1539 1539 1539 1540 1541 1541 1542 1542 1543 1543 1544 1544 1544 1544 1544 1543 1543 1543 1543 1544 1543 1543 1543 1543 1543 1543 1542 1542 1541 1540 1540 1539
1538 1539 1539 1539 1539 1540 1540 1540 1540 1541 1541 1541 1542 1542 1543 1543 1544 1544 1545 1545 1546 1546 1546 1545 1545 1545 1544 1544 1544 1544 1544 1544 1544 1544 1544 1543 1543 1542 1542 1541 1540 1539 1539
1540 1541 1542 1542 1542 1542 1542 1543 1543 1543 1544 1544 1544 1545 1545 1546 1546 1547 1547 1547 1547 1547 1547 1547 1547 1546 1546 1545 1545 1544 1544 1544 1544 1544 1544 1543 1543 1543 1542 1541 1540 1539 1538
1542 1543 1544 1544 1545 1545 1545 1545 1545 1546 1546 1547 1547 1548 1548 1548 1548 1548 1548 1548 1548 1549 1549 1548 1548 1547 1547 1546 1546 1545 1545 1545 1545 1544 1544 1544 1543 1543 1542 1541 1541 1540 1538
1544 1545 1546 1547 1547 1547 1547 1548 1548 1548 1549 1549 1550 1550 1550 1550 1550 1550 1550 1550 1550 1550 1550 1550 1549 1548 1548 1547 1547 1546 1546 1546 1545 1545 1545 1544 1544 1543 1542 1542 1541 1540 1538
1546 1547 1548 1549 1549 1550 1550 1550 1550 1551 1551 1552 1552 1552 1552 1553 1552 1552 1552 1552 1552 1552 1552 1551 1550 1550 1549 1548 1548 1547 1547 1546 1546 1545 1545 1545 1544 1544 1543 1542 1541 1539 1538
1548 1549 1550 1551 1551 1552 1552 1553 1553 1553 1553 1554 1554 1554 1554 1554 1554 1553 1553 1553 1553 1553 1552 1552 1551 1551 1550 1549 1549 1548 1548 1547 1547 1546 1545 1545 1544 1544 1543 1542 1541 1539 1538
1550 1551 1552 1552 1553 1553 1554 1554 1554 1554 1554 1555 1555 1555 1555 1555 1555 1554 1554 1553 1553 1553 1553 1552 1552 1552 1551 1551 1550 1549 1548 1548 1547 1546 1546 1545 1544 1543 1542 1542 1540 1539 1538
1552 1553 1553 1554 1555 1555 1555 1555 1555 1556 1556 1556 1556 1556 1556 1556 1555 1555 1554 1554 1554 1554 1554 1553 1553 1553 1552 1551 1551 1550 1549 1548 1547 1547 1546 1545 1544 1543 1542 1541 1540 1539 1537
1553 1554 1555 1556 1556 1557 1557 1557 1557 1557 1557 1557 1557 1557 1556 1556 1556 1556 1555 1555 1555 1555 1554 1554 1554 1554 1553 1552 1551 1550 1549 1549 1548 1547 1546 1545 1544 1543 1542 1541 1540 1539 1537
1555 1556 1556 1557 1557 1558 1558 1558 1558 1558 1558 1558 1558 1558 1557 1557 1557 1557 1557 1556 1556 1556 1555 1555 1555 1554 1553 1552 1552 1551 1550 1549 1548 1547 1546 1545 1545 1543 1542 1541 1540 1539 1537
1556 1557 1557 1558 1558 1559 1559 1559 1559 1559 1559 1559 1559 1559 1558 1558 1558 1558 1558 1557 1556 1556 1556 1556 1555 1554 1553 1553 1552 1551 1550 1549 1548 1547 1546 1545 1545 1543 1542 1541 1540 1539 1537
1557 1558 1558 1558 1559 1559 1559 1559 1559 1560 1560 1560 1559 1559 1559 1558 1558 1558 1558 1558 1557 1557 1556 1555 1555 1554 1553 1552 1552 1551 1550 1549 1548 1547 1546 1546 1545 1544 1542 1541 1540 1538 1537
1558 1558 1559 1559 1559 1559 1560 1560 1560 1560 1560 1560 1560 1559 1559 1559 1559 1559 1558 1558 1557 1557 1556 1555 1555 1554 1553 1552 1551 1550 1549 1549 1548 1546 1545 1545 1544 1543 1542 1541 1540 1538 1537
1559 1559 1559 1559 1560 1560 1560 1560 1560 1560 1560 1560 1559 1559 1559 1559 1559 1559 1558 1558 1557 1556 1555 1554 1554 1553 1552 1551 1550 1549 1548 1547 1546 1545 1544 1544 1543 1543 1542 1541 1539 1538 1536
1559 1559 1560 1560 1560 1560 1560 1560 1560 1560 1560 1560 1560 1559 1559 1559 1559 1558 1558 1557 1556 1555 1555 1554 1553 1552 1551 1550 1549 1548 1547 1546 1545 1544 1543 1542 1542 1541 1541 1540 1539 1537 1536
1559 1559 1559 1560 1560 1560 1560 1560 1560 1560 1560 1559 1559 1559 1559 1558 1558 1557 1557 1556 1555 1555 1554 1553 1552 1551 1550 1549 1548 1546 1545 1545 1544 1543 1542 1541 1541 1540 1540 1539 1538 1537 1535
1558 1558 1559 1559 1559 1559 1559 1559 1559 1559 1559 1559 1559 1559 1558 1558 1557 1557 1556 1555 1554 1554 1553 1552 1551 1550 1549 1548 1546 1545 1544 1543 1542 1541 1540 1540 1540 1539 1539 1538 1537 1536 1535
1557 1558 1558 1558 1558 1559 1559 1559 1559 1559 1558 1558 1558 1558 1557 1557 1556 1556 1555 1554 1554 1553 1552 1551 1550 1548 1547 1546 1545 1544 1543 1542 1541 1540 1539 1539 1539 1538 1537 1537 1536 1535 1534